Satellite: NOAA-12
Catalog number: 21263
Epoch time: 07326.65149474
Element set: 0436
Inclination: 098.7621 deg
RA of node: 323.6984 deg
Eccentricity: 0.0012550
Arg of perigee: 012.5814 deg
Mean anomaly: 347.5651 deg
Mean motion: 14.25503866 rev/day
Decay rate: 9.7e-07 rev/day^2
Epoch rev: 85882
Checksum: 319
Satellite: MET-3/5
Catalog number: 21655
Epoch time: 07326.94869276
Element set: 0367
Inclination: 082.5553 deg
RA of node: 250.7633 deg
Eccentricity: 0.0013211
Arg of perigee: 165.2639 deg
Mean anomaly: 194.8869 deg
Mean motion: 13.17013646 rev/day
Decay rate: 5.1e-07 rev/day^2
Epoch rev: 78230
Checksum: 320
Satellite: MET-2/21
Catalog number: 22782
Epoch time: 07326.81115202
Element set: 992
Inclination: 082.5455 deg
RA of node: 276.0680 deg
Eccentricity: 0.0023194
Arg of perigee: 147.9389 deg
Mean anomaly: 212.3202 deg
Mean motion: 13.83621291 rev/day
Decay rate: 8.3e-07 rev/day^2
Epoch rev: 71845
Checksum: 297
Satellite: OKEAN-4
Catalog number: 23317
Epoch time: 07326.72340983
Element set: 0432
Inclination: 082.5363 deg
RA of node: 148.6432 deg
Eccentricity: 0.0024049
Arg of perigee: 090.5350 deg
Mean anomaly: 269.8604 deg
Mean motion: 14.82552038 rev/day
Decay rate: 1.73e-06 rev/day^2
Epoch rev: 70754
Checksum: 296
Satellite: NOAA-14
Catalog number: 23455
Epoch time: 07326.75573998
Element set: 0907
Inclination: 098.9735 deg
RA of node: 033.6442 deg
Eccentricity: 0.0009536
Arg of perigee: 017.3460 deg
Mean anomaly: 342.8053 deg
Mean motion: 14.13728811 rev/day
Decay rate: -5.2e-07 rev/day^2
Epoch rev: 66504
Checksum: 319
Satellite: SICH-1
Catalog number: 23657
Epoch time: 07326.80566156
Element set: 0232
Inclination: 082.5254 deg
RA of node: 289.5043 deg
Eccentricity: 0.0026005
Arg of perigee: 082.3451 deg
Mean anomaly: 278.0729 deg
Mean motion: 14.81527582 rev/day
Decay rate: 1.55e-06 rev/day^2
Epoch rev: 65951
Checksum: 304
Satellite: NOAA-15
Catalog number: 25338
Epoch time: 07326.82584470
Element set: 0250
Inclination: 098.5415 deg
RA of node: 319.1265 deg
Eccentricity: 0.0009716
Arg of perigee: 288.3243 deg
Mean anomaly: 071.6873 deg
Mean motion: 14.24672712 rev/day
Decay rate: -5.4e-07 rev/day^2
Epoch rev: 49527
Checksum: 318
Satellite: RESURS
Catalog number: 25394
Epoch time: 07326.70974281
Element set: 0808
Inclination: 098.4190 deg
RA of node: 014.7951 deg
Eccentricity: 0.0002421
Arg of perigee: 079.1117 deg
Mean anomaly: 281.0334 deg
Mean motion: 14.24148624 rev/day
Decay rate: -3.5e-07 rev/day^2
Epoch rev: 48691
Checksum: 292
Satellite: FENGYUN1
Catalog number: 25730
Epoch time: 07326.93584752
Element set: 0323
Inclination: 098.7070 deg
RA of node: 304.9181 deg
Eccentricity: 0.0021032
Arg of perigee: 033.6332 deg
Mean anomaly: 326.6168 deg
Mean motion: 14.07642816 rev/day
Decay rate: 2.54e-06 rev/day^2
Epoch rev: 43980
Checksum: 287
Satellite: OKEAN-0
Catalog number: 25860
Epoch time: 07326.59392820
Element set: 218
Inclination: 097.7385 deg
RA of node: 321.5088 deg
Eccentricity: 0.0000705
Arg of perigee: 105.1503 deg
Mean anomaly: 254.9783 deg
Mean motion: 14.73486066 rev/day
Decay rate: 5.6e-07 rev/day^2
Epoch rev: 44882
Checksum: 312
Satellite: NOAA-16
Catalog number: 26536
Epoch time: 07326.72565841
Element set: 0692
Inclination: 099.1372 deg
RA of node: 306.5821 deg
Eccentricity: 0.0011395
Arg of perigee: 088.4870 deg
Mean anomaly: 271.7612 deg
Mean motion: 14.12459380 rev/day
Decay rate: 2.03e-06 rev/day^2
Epoch rev: 36948
Checksum: 320
Satellite: NOAA-17
Catalog number: 27453
Epoch time: 07326.76501848
Element set: 0688
Inclination: 098.5637 deg
RA of node: 032.1265 deg
Eccentricity: 0.0011547
Arg of perigee: 357.3235 deg
Mean anomaly: 002.7860 deg
Mean motion: 14.23925907 rev/day
Decay rate: -7.2e-07 rev/day^2
Epoch rev: 28128
Checksum: 318
Satellite: NOAA-18
Catalog number: 28654
Epoch time: 07326.80039655
Element set: 0207
Inclination: 098.8455 deg
RA of node: 265.5280 deg
Eccentricity: 0.0014275
Arg of perigee: 176.7753 deg
Mean anomaly: 183.3496 deg
Mean motion: 14.11113998 rev/day
Decay rate: 8.0e-07 rev/day^2
Epoch rev: 12922
Checksum: 326
/EX
SB KEPS @ AMSAT $ORB07327.M
Orbital Elements 07327.MISC
HR AMSAT ORBITAL ELEMENTS FOR MANNED AND MISCELLANEOUS SATELLITES
FROM WA5QGD FORT WORTH,TX November 23, 2007
Send Subscribe/unsubscribe to KEPS at
http://www.amsat.org/mailman/listinfo/keps
BID: ORB07327.M
TO ALL RADIO AMATEURS BT
Satellite: HUBBLE
Catalog number: 20580
Epoch time: 07327.86426195
Element set: 12
Inclination: 028.4688 deg
RA of node: 228.8334 deg
Eccentricity: 0.0003372
Arg of perigee: 352.9850 deg
Mean anomaly: 007.0690 deg
Mean motion: 15.00306323 rev/day
Decay rate: 4.07e-06 rev/day^2
Epoch rev: 76396
Checksum: 287
Satellite: UARS
Catalog number: 21701
Epoch time: 07326.53372471
Element set: 0243
Inclination: 056.9748 deg
RA of node: 346.0680 deg
Eccentricity: 0.0093979
Arg of perigee: 135.8966 deg
Mean anomaly: 224.9637 deg
Mean motion: 15.49686790 rev/day
Decay rate: 4.877e-05 rev/day^2
Epoch rev: 89028
Checksum: 360
Satellite: PO-34
Catalog number: 25520
Epoch time: 07326.85194842
Element set: 0876
Inclination: 028.4592 deg
RA of node: 126.7573 deg
Eccentricity: 0.0005812
Arg of perigee: 183.1583 deg
Mean anomaly: 176.8973 deg
Mean motion: 15.17085812 rev/day
Decay rate: 4.97e-06 rev/day^2
Epoch rev: 50164
Checksum: 332
Satellite: ISS
Catalog number: 25544
Epoch time: 07327.72375142
Element set: 397
Inclination: 051.6427 deg
RA of node: 001.3649 deg
Eccentricity: 0.0001060
Arg of perigee: 188.2851 deg
Mean anomaly: 278.4046 deg
Mean motion: 15.76604131 rev/day
Decay rate: 2.3281e-04 rev/day^2
Epoch rev: 51594
Checksum: 289
Satellite: OO-38
Catalog number: 26063
Epoch time: 07327.81752192
Element set: 67
Inclination: 100.2207 deg
RA of node: 359.8958 deg
Eccentricity: 0.0037291
Arg of perigee: 070.7561 deg
Mean anomaly: 289.7638 deg
Mean motion: 14.35820403 rev/day
Decay rate: -2.7e-07 rev/day^2
Epoch rev: 40995
Checksum: 323
Satellite: UWE-1
Catalog number: 28892
Epoch time: 07326.71218053
Element set: 0906
Inclination: 098.1131 deg
RA of node: 220.0435 deg
Eccentricity: 0.0017425
Arg of perigee: 341.1762 deg
Mean anomaly: 018.8768 deg
Mean motion: 14.59563168 rev/day
Decay rate: 6.7e-07 rev/day^2
Epoch rev: 11033
Checksum: 290
Satellite: CO-58
Catalog number: 28895
Epoch time: 07326.68602267
Element set: 0881
Inclination: 098.1156 deg
RA of node: 220.2904 deg
Eccentricity: 0.0017700
Arg of perigee: 341.1376 deg
Mean anomaly: 018.9194 deg
Mean motion: 14.59607289 rev/day
Decay rate: 2.60e-06 rev/day^2
Epoch rev: 11021
Checksum: 312
Satellite: NCUBE2
Catalog number: 28897
Epoch time: 07326.67447870
Element set: 0410
Inclination: 098.1146 deg
RA of node: 220.2231 deg
Eccentricity: 0.0017129
Arg of perigee: 342.4119 deg
Mean anomaly: 017.6511 deg
Mean motion: 14.59772741 rev/day
Decay rate: 1.65e-06 rev/day^2
Epoch rev: 10249
Checksum: 292
Satellite: FCAL
Catalog number: 29667
Epoch time: 07327.46957547
Element set: 524
Inclination: 051.6331 deg
RA of node: 335.2363 deg
Eccentricity: 0.0008588
Arg of perigee: 253.5064 deg
Mean anomaly: 106.5017 deg
Mean motion: 15.95215850 rev/day
Decay rate: 3.4492e-04 rev/day^2
Epoch rev: 5336
Checksum: 312
Satellite: FALCON
Catalog number: 30776
Epoch time: 07325.44680196
Element set: 0195
Inclination: 035.4349 deg
RA of node: 339.2735 deg
Eccentricity: 0.0001737
Arg of perigee: 354.3186 deg
Mean anomaly: 005.7510 deg
Mean motion: 15.02804063 rev/day
Decay rate: 2.55e-06 rev/day^2
Epoch rev: 03872
Checksum: 289
Satellite: MAST
Catalog number: 31126
Epoch time: 07326.67420782
Element set: 189
Inclination: 098.0676 deg
RA of node: 034.1177 deg
Eccentricity: 0.0093806
Arg of perigee: 254.8891 deg
Mean anomaly: 104.1920 deg
Mean motion: 14.53377717 rev/day
Decay rate: -1.6e-07 rev/day^2
Epoch rev: 3187
Checksum: 306
Satellite: CAPE1
Catalog number: 31130
Epoch time: 07326.76010786
Element set: 169
Inclination: 098.0677 deg
RA of node: 033.6869 deg
Eccentricity: 0.0102116
Arg of perigee: 256.0165 deg
Mean anomaly: 102.9630 deg
Mean motion: 14.51903250 rev/day
Decay rate: -6.6e-07 rev/day^2
Epoch rev: 3162
Checksum: 272
/EX
More information about the Keps
mailing list